When you browse on this site, cookies collect data to enhance your experience and personalize the content and advertising you see.
Visit our Privacy Policy to learn more. By continuing to use the site, you agree to this use of cookies and data.
  • In Deutschland
  • Länderverzeichnis
  • Für 7 Tage
  • Wassertemperatur
  • Wetterkarte
  • Widgets
  • user-avatar
    Anmelden

    Stündliche Wetter Bad Waldsee

    Heute, 15 September, Sonntag

    Zeit Temperatur Niederschläge Wind Luftdruck Luftfeuchtigkeit
    00:00 +15°C° 0 mm 1 m/S 715 mmHg 96%
    01:00 +14°C° 0 mm 1 m/S 715 mmHg 96%
    02:00 +14°C° 0 mm 1 m/S 715 mmHg 96%
    03:00 +13°C° 0 mm 0 m/S 715 mmHg 96%
    04:00 +13°C° 0 mm 0 m/S 714 mmHg 97%
    05:00 +13°C° 0 mm 0 m/S 714 mmHg 97%
    06:00 +15°C° 0 mm 1 m/S 714 mmHg 97%
    07:00 +15°C° 0 mm 1 m/S 714 mmHg 97%
    08:00 +18°C° 0 mm 1 m/S 714 mmHg 92%
    09:00 +20°C° 0 mm 1 m/S 714 mmHg 87%
    10:00 +20°C° 0 mm 2 m/S 714 mmHg 82%
    11:00 +23°C° 0 mm 1 m/S 714 mmHg 76%
    12:00 +24°C° 0 mm 1 m/S 714 mmHg 70%
    13:00 +25°C° 0 mm 1 m/S 714 mmHg 64%
    14:00 +26°C° 0 mm 1 m/S 714 mmHg 64%
    15:00 +26°C° 0 mm 1 m/S 713 mmHg 64%
    16:00 +26°C° 0 mm 1 m/S 713 mmHg 64%
    17:00 +24°C° 0 mm 1 m/S 713 mmHg 72%
    18:00 +22°C° 0 mm 1 m/S 713 mmHg 80%
    19:00 +19°C° 0 mm 1 m/S 712 mmHg 88%
    20:00 +19°C° 0 mm 1 m/S 712 mmHg 89%
    21:00 +18°C° 0 mm 1 m/S 712 mmHg 89%
    22:00 +18°C° 0 mm 1 m/S 712 mmHg 90%
    23:00 +16°C° 0 mm 1 m/S 712 mmHg 90%

    Morgen, 16 September, Montag

    Zeit Temperatur Niederschläge Wind Luftdruck Luftfeuchtigkeit
    00:00 +16°C° 0 mm 1 m/S 712 mmHg 91%
    01:00 +16°C° 0 mm 1 m/S 712 mmHg 92%
    02:00 +16°C° 0 mm 1 m/S 712 mmHg 93%
    03:00 +15°C° 0 mm 1 m/S 711 mmHg 93%
    04:00 +15°C° 0 mm 1 m/S 711 mmHg 94%
    05:00 +15°C° 0 mm 1 m/S 711 mmHg 94%
    06:00 +16°C° 0 mm 1 m/S 711 mmHg 94%
    07:00 +16°C° 0 mm 1 m/S 711 mmHg 93%
    08:00 +19°C° 0 mm 1 m/S 711 mmHg 87%
    09:00 +20°C° 0 mm 2 m/S 711 mmHg 81%
    10:00 +23°C° 0 mm 2 m/S 712 mmHg 74%
    11:00 +24°C° 0 mm 2 m/S 711 mmHg 70%
    12:00 +25°C° 0 mm 3 m/S 711 mmHg 66%
    13:00 +26°C° 0 mm 3 m/S 711 mmHg 62%
    14:00 +25°C° 0.3 mm 3 m/S 711 mmHg 67%
    15:00 +25°C° 0.3 mm 2 m/S 710 mmHg 73%
    16:00 +24°C° 0.3 mm 2 m/S 710 mmHg 78%
    17:00 +21°C° 0.2 mm 2 m/S 710 mmHg 81%
    18:00 +20°C° 0.2 mm 2 m/S 710 mmHg 84%
    19:00 +19°C° 0.2 mm 1 m/S 710 mmHg 87%
    20:00 +18°C° 0 mm 1 m/S 710 mmHg 86%
    21:00 +15°C° 0 mm 1 m/S 710 mmHg 85%
    22:00 +14°C° 0 mm 1 m/S 710 mmHg 83%
    23:00 +14°C° 0 mm 1 m/S 710 mmHg 82%

    übermorgen, 17 September, Dienstag

    Zeit Temperatur Niederschläge Wind Luftdruck Luftfeuchtigkeit
    00:00 +12°C° 0 mm 0 m/S 710 mmHg 81%
    01:00 +12°C° 0 mm 0 m/S 709 mmHg 80%
    02:00 +11°C° 0 mm 0 m/S 709 mmHg 81%
    03:00 +11°C° 0 mm 0 m/S 709 mmHg 81%
    04:00 +10°C° 0 mm 0 m/S 709 mmHg 82%
    05:00 +10°C° 0 mm 0 m/S 709 mmHg 83%
    06:00 +11°C° 0 mm 0 m/S 709 mmHg 85%
    07:00 +12°C° 0 mm 1 m/S 709 mmHg 86%
    08:00 +14°C° 0 mm 1 m/S 709 mmHg 81%
    09:00 +16°C° 0 mm 1 m/S 710 mmHg 76%
    10:00 +18°C° 0 mm 1 m/S 710 mmHg 71%
    11:00 +18°C° 0 mm 2 m/S 710 mmHg 71%
    12:00 +18°C° 0 mm 2 m/S 710 mmHg 71%
    13:00 +19°C° 0 mm 3 m/S 710 mmHg 71%
    14:00 +18°C° 0 mm 3 m/S 709 mmHg 72%
    15:00 +18°C° 0 mm 3 m/S 709 mmHg 73%
    16:00 +18°C° 0 mm 2 m/S 709 mmHg 74%
    17:00 +16°C° 0 mm 2 m/S 709 mmHg 78%
    18:00 +14°C° 0 mm 2 m/S 709 mmHg 81%
    19:00 +13°C° 0 mm 2 m/S 709 mmHg 85%
    20:00 +12°C° 0 mm 2 m/S 709 mmHg 86%
    21:00 +10°C° 0 mm 2 m/S 710 mmHg 87%
    22:00 +9°C° 0 mm 2 m/S 710 mmHg 88%
    23:00 +8°C° 0 mm 2 m/S 710 mmHg 88%

    18 September, Mittwoch

    Zeit Temperatur Niederschläge Wind Luftdruck Luftfeuchtigkeit
    00:00 +7°C° 0 mm 2 m/S 710 mmHg 87%
    01:00 +7°C° 0 mm 2 m/S 709 mmHg 87%
    02:00 +6°C° 0 mm 2 m/S 709 mmHg 88%
    03:00 +5°C° 0 mm 3 m/S 709 mmHg 90%
    04:00 +4°C° 0 mm 3 m/S 709 mmHg 91%
    05:00 +4°C° 0 mm 3 m/S 709 mmHg 91%
    06:00 +5°C° 0 mm 3 m/S 709 mmHg 90%
    07:00 +5°C° 0 mm 3 m/S 710 mmHg 90%
    08:00 +7°C° 0 mm 3 m/S 710 mmHg 83%
    09:00 +9°C° 0 mm 3 m/S 710 mmHg 77%
    10:00 +11°C° 0 mm 4 m/S 710 mmHg 71%
    11:00 +12°C° 0 mm 4 m/S 710 mmHg 68%
    12:00 +13°C° 0 mm 4 m/S 710 mmHg 66%
    13:00 +14°C° 0 mm 4 m/S 710 mmHg 64%
    14:00 +14°C° 0 mm 4 m/S 709 mmHg 64%
    15:00 +13°C° 0 mm 4 m/S 709 mmHg 64%
    16:00 +13°C° 0 mm 4 m/S 709 mmHg 64%
    17:00 +11°C° 0 mm 4 m/S 709 mmHg 69%
    18:00 +10°C° 0 mm 3 m/S 710 mmHg 74%
    19:00 +8°C° 0 mm 3 m/S 710 mmHg 79%
    20:00 +7°C° 0 mm 3 m/S 710 mmHg 81%
    21:00 +5°C° 0 mm 3 m/S 710 mmHg 83%
    22:00 +5°C° 0 mm 3 m/S 711 mmHg 85%
    23:00 +4°C° 0 mm 3 m/S 711 mmHg 86%

    19 September, Donnerstag

    Zeit Temperatur Niederschläge Wind Luftdruck Luftfeuchtigkeit
    00:00 +3°C° 0 mm 3 m/S 711 mmHg 86%
    01:00 +3°C° 0 mm 3 m/S 711 mmHg 87%
    02:00 +3°C° 0 mm 2 m/S 711 mmHg 88%
    03:00 +3°C° 0 mm 2 m/S 711 mmHg 89%
    04:00 +3°C° 0 mm 2 m/S 710 mmHg 90%
    05:00 +3°C° 0 mm 2 m/S 711 mmHg 88%
    06:00 +3°C° 0 mm 2 m/S 711 mmHg 87%
    07:00 +3°C° 0 mm 2 m/S 711 mmHg 86%
    08:00 +4°C° 0 mm 3 m/S 712 mmHg 79%
    09:00 +8°C° 0 mm 3 m/S 712 mmHg 72%
    10:00 +10°C° 0 mm 4 m/S 713 mmHg 64%
    11:00 +10°C° 0 mm 4 m/S 713 mmHg 63%
    12:00 +11°C° 0 mm 4 m/S 712 mmHg 61%
    13:00 +12°C° 0 mm 4 m/S 712 mmHg 59%
    14:00 +10°C° 0 mm 5 m/S 712 mmHg 60%
    15:00 +10°C° 0 mm 5 m/S 712 mmHg 62%
    16:00 +10°C° 0 mm 5 m/S 712 mmHg 64%
    17:00 +8°C° 0 mm 4 m/S 713 mmHg 69%
    18:00 +7°C° 0 mm 4 m/S 713 mmHg 75%
    19:00 +5°C° 0 mm 3 m/S 713 mmHg 80%
    20:00 +4°C° 0 mm 3 m/S 714 mmHg 82%
    21:00 +4°C° 0 mm 3 m/S 714 mmHg 83%
    22:00 +3°C° 0 mm 3 m/S 715 mmHg 84%
    23:00 +3°C° 0 mm 3 m/S 715 mmHg 84%

    20 September, Freitag

    Zeit Temperatur Niederschläge Wind Luftdruck Luftfeuchtigkeit
    00:00 +2°C° 0 mm 3 m/S 715 mmHg 84%
    01:00 +3°C° 0 mm 2 m/S 715 mmHg 84%
    02:00 +2°C° 0 mm 3 m/S 715 mmHg 85%
    03:00 +2°C° 0 mm 3 m/S 715 mmHg 85%
    04:00 +1°C° 0 mm 3 m/S 714 mmHg 85%
    05:00 +1°C° 0 mm 3 m/S 715 mmHg 85%
    06:00 +2°C° 0 mm 3 m/S 715 mmHg 84%
    07:00 +2°C° 0 mm 3 m/S 715 mmHg 83%
    08:00 +4°C° 0 mm 4 m/S 715 mmHg 75%
    09:00 +6°C° 0 mm 5 m/S 715 mmHg 67%
    10:00 +9°C° 0 mm 6 m/S 715 mmHg 58%
    11:00 +10°C° 0 mm 6 m/S 715 mmHg 57%
    12:00 +11°C° 0 mm 6 m/S 715 mmHg 55%
    13:00 +13°C° 0 mm 6 m/S 714 mmHg 54%
    14:00 +13°C° 0 mm 6 m/S 714 mmHg 55%
    15:00 +13°C° 0 mm 6 m/S 714 mmHg 57%
    16:00 +11°C° 0 mm 6 m/S 714 mmHg 59%
    17:00 +10°C° 0 mm 5 m/S 714 mmHg 64%
    18:00 +8°C° 0 mm 4 m/S 714 mmHg 68%
    19:00 +6°C° 0 mm 4 m/S 713 mmHg 73%
    20:00 +5°C° 0 mm 3 m/S 713 mmHg 77%
    21:00 +4°C° 0 mm 3 m/S 713 mmHg 81%
    22:00 +4°C° 0 mm 2 m/S 713 mmHg 85%
    23:00 +3°C° 0 mm 2 m/S 713 mmHg 87%
    Mehr zeigen